User: anonymous   Login
Location: Unspecified
(0.0000°N, 0.0000°E)
Time: 22:04:53
(UTC+00:00)
Language:

CBERS 2B - Orbit

View from above orbital plane
View from above orbital plane
View from above satellite
View from above satellite

Ground track
Ground track

The orbit data is extracted from the following two-line orbital elements,

1 32062U 07042A   23083.51442631  .00000575  00000-0  19440-3 0  9996
2 32062  98.2376  44.2404 0030664 294.3083  65.4893 14.40079913814732
Epoch (UTC): 24 March 2023 12:20:46
Eccentricity: 0.0030664
inclination: 98.2376°
perigee height: 736 km
apogee height: 780 km
right ascension of ascending node: 44.2404°
argument of perigee: 294.3083°
revolutions per day: 14.40079913
mean anomaly at epoch: 65.4893°
orbit number at epoch: 81473

The dashed part of the orbit path shows where the satellite is in the earth's shadow,  

DLR